Location: Bucquoy
(50.1391°N, 2.7097°E)
Time: 07:53:19
(UTC+00:00)

Cosmos 1607 - Pass Details

Date: 06 May 2021
Orbit: 909 x 993 km, 65.0° (Epoch: 21 June)

Event Time Altitude Azimuth Distance (km) Brightness Sun altitude
Exits shadow 01:55:41 25° 234° (SW) 1,883 5.0 -17.4°
Maximum altitude 01:59:39 71° 314° (NW) 1,050 4.2 -17.1°
Drops below altitude 10° 02:06:09 10° 38° (NE) 2,765 7.7 -16.5°
Sets 02:08:46 0° 41° (NE) 3,715 8.9 -16.2°
